KJ4AJP Weather Reports


time (UTC)temp
C
wind
direction
speed
KPH
gust
KPH
rain 1hr
cm
rain 24hr
cm
rain mn
cm
humidity
%
barometer
mb
20260510205335 28 57 0.0 1.6 0.00 0.00 0.00 47 1015.7
20260510204831 28 43 1.6 1.6 0.00 0.00 0.00 47 1015.6
20260510204327 28 44 0.0 0.0 0.00 0.00 0.00 45 1015.7
20260510203824 28 285 3.2 3.2 0.00 0.00 0.00 47 1015.7
20260510203322 28 29 0.0 1.6 0.00 0.00 0.00 45 1015.9
20260510202822 28 39 0.0 0.0 0.00 0.00 0.00 44 1015.8
20260510202318 28 72 0.0 0.0 0.00 0.00 0.00 52 1015.8
20260510201815 28 55 0.0 1.6 0.00 0.00 0.00 47 1015.8
20260510201312 28 52 0.0 0.0 0.00 0.00 0.00 51 1015.8
20260510200808 28 40 0.0 0.0 0.00 0.00 0.00 47 1015.9
20260510200306 28 41 1.6 1.6 0.00 0.00 0.00 47 1015.9
20260510195802 28 46 0.0 1.6 0.00 0.00 0.00 47 1016.0
20260510195259 28 46 0.0 0.0 0.00 0.00 0.00 50 1016.0
20260510194758 27 52 0.0 0.0 0.00 0.00 0.00 49 1016.4
20260510194256 27 53 0.0 0.0 0.00 0.00 0.00 55 1016.4
20260510193751 27 58 0.0 0.0 0.00 0.00 0.00 50 1016.3
20260510193246 27 37 1.6 3.2 0.00 0.00 0.00 50 1016.6
20260510192742 27 54 0.0 1.6 0.00 0.00 0.00 52 1016.5
20260510192238 27 66 0.0 1.6 0.00 0.00 0.00 52 1016.3
20260510191734 28 35 0.0 0.0 0.00 0.00 0.00 49 1016.3
20260510191230 28 49 0.0 0.0 0.00 0.00 0.00 49 1016.3
20260510190728 28 62 0.0 1.6 0.00 0.00 0.00 49 1016.1
20260510190224 28 48 0.0 0.0 0.00 0.00 0.00 50 1016.0
20260510185721 28 37 1.6 1.6 0.00 0.00 0.00 48 1016.0
20260510185220 28 61 0.0 0.0 0.00 0.00 0.00 49 1015.9
20260510184716 28 93 1.6 1.6 0.00 0.00 0.00 50 1016.3
20260510184213 27 69 1.6 3.2 0.00 0.00 0.00 52 1016.1
20260510183708 27 67 1.6 1.6 0.00 0.00 0.00 51 1016.1
20260510183202 27 67 0.0 0.0 0.00 0.00 0.00 55 1016.1
20260510182659 27 65 0.0 1.6 0.00 0.00 0.00 52 1016.0
20260510182155 28 35 1.6 1.6 0.00 0.00 0.00 48 1016.0
20260510181653 28 66 0.0 1.6 0.00 0.00 0.00 46 1016.3
20260510181149 28 40 0.0 0.0 0.00 0.00 0.00 48 1015.8
20260510180644 28 54 0.0 0.0 0.00 0.00 0.00 52 1016.3
20260510180143 28 0 1.6 1.6 0.00 0.00 0.00 45 1016.4
20260510175638 28 32 1.6 1.6 0.00 0.00 0.00 45 1016.0
20260510175134 28 53 1.6 3.2 0.00 0.00 0.00 45 1016.3
20260510174632 29 48 0.0 1.6 0.00 0.00 0.00 45 1016.0
20260510174130 28 56 0.0 0.0 0.00 0.00 0.00 48 1016.3
20260510173625 28 54 0.0 0.0 0.00 0.00 0.00 48 1016.3
20260510173121 28 40 1.6 1.6 0.00 0.00 0.00 46 1016.4
20260510172617 28 51 0.0 0.0 0.00 0.00 0.00 49 1016.3
20260510172114 28 41 1.6 1.6 0.00 0.00 0.00 46 1016.3
20260510171610 28 73 1.6 1.6 0.00 0.00 0.00 44 1016.5
20260510171108 27 51 0.0 0.0 0.00 0.00 0.00 50 1016.5
20260510170604 27 55 0.0 0.0 0.00 0.00 0.00 47 1016.7
20260510170101 28 157 3.2 4.8 0.00 0.00 0.00 44 1016.9
20260510165556 28 52 0.0 0.0 0.00 0.00 0.00 51 1016.9
20260510165052 28 45 0.0 1.6 0.00 0.00 0.00 51 1016.7
20260510164550 28 55 0.0 0.0 0.00 0.00 0.00 48 1016.7
20260510164046 27 54 0.0 0.0 0.00 0.00 0.00 50 1016.6
20260510163542 27 66 0.0 0.0 0.00 0.00 0.00 48 1016.6
20260510163038 27 70 0.0 0.0 0.00 0.00 0.00 47 1016.7
20260510162533 27 58 0.0 0.0 0.00 0.00 0.00 48 1016.8
20260510162031 27 33 1.6 3.2 0.00 0.00 0.00 48 1016.7
20260510161526 27 59 0.0 0.0 0.00 0.00 0.00 48 1016.8
20260510161023 26 52 0.0 0.0 0.00 0.00 0.00 46 1016.8
20260510160515 26 51 0.0 1.6 0.00 0.00 0.00 52 1016.6
20260510160014 26 117 1.6 1.6 0.00 0.00 0.00 48 1016.8
20260510155510 26 327 3.2 3.2 0.00 0.00 0.00 49 1016.6
20260510155007 25 98 1.6 1.6 0.00 0.00 0.00 49 1016.7
20260510154502 25 48 0.0 0.0 0.00 0.00 0.00 51 1016.6
20260510154001 25 42 1.6 1.6 0.00 0.00 0.00 53 1016.7
20260510153458 25 46 1.6 1.6 0.00 0.00 0.00 53 1016.7
20260510152955 25 212 3.2 3.2 0.00 0.00 0.00 52 1016.6
20260510152452 25 56 0.0 1.6 0.00 0.00 0.00 55 1016.5
20260510151948 25 26 1.6 1.6 0.00 0.00 0.00 54 1016.5
20260510151446 25 97 1.6 3.2 0.00 0.00 0.00 58 1016.3
20260510150942 25 36 0.0 1.6 0.00 0.00 0.00 52 1016.4
20260510150438 25 272 3.2 3.2 0.00 0.00 0.00 56 1016.1
20260510145934 25 43 0.0 0.0 0.00 0.00 0.00 53 1016.0
20260510145431 25 53 0.0 0.0 0.00 0.00 0.00 56 1016.0
20260510144927 25 40 0.0 0.0 0.00 0.00 0.00 55 1016.1
20260510144424 23 62 0.0 1.6 0.00 0.00 0.00 57 1016.1
20260510143919 23 40 1.6 3.2 0.00 0.00 0.00 61 1016.0
20260510143415 23 32 3.2 3.2 0.00 0.00 0.00 58 1016.1
20260510142913 22 50 0.0 0.0 0.00 0.00 0.00 65 1015.9
20260510142410 22 271 4.8 4.8 0.00 0.00 0.00 60 1015.8
20260510141906 22 24 1.6 1.6 0.00 0.00 0.00 60 1016.0
20260510141403 21 77 1.6 1.6 0.00 0.00 0.00 63 1016.0
20260510140900 21 47 0.0 1.6 0.00 0.00 0.00 65 1015.7
20260510140356 21 42 1.6 1.6 0.00 0.00 0.00 66 1016.0
20260510135854 20 63 0.0 0.0 0.00 0.00 0.00 69 1015.8
20260510135350 20 212 3.2 4.8 0.00 0.00 0.00 71 1016.0
20260510134848 20 230 3.2 3.2 0.00 0.00 0.00 71 1015.9
20260510134345 20 60 0.0 0.0 0.00 0.00 0.00 74 1015.9
20260510133841 19 72 0.0 1.6 0.00 0.00 0.00 76 1015.9
20260510133337 18 56 0.0 0.0 0.00 0.00 0.00 76 1016.0
20260510132833 18 67 0.0 0.0 0.00 0.00 0.00 77 1015.9
20260510132331 18 2 1.6 1.6 0.00 0.00 0.00 78 1015.8
20260510131828 17 27 1.6 3.2 0.00 0.00 0.00 81 1015.8
20260510131326 17 67 0.0 0.0 0.00 0.00 0.00 81 1015.8
20260510130822 17 49 0.0 0.0 0.00 0.00 0.00 80 1015.8
20260510130319 16 70 0.0 0.0 0.00 0.00 0.00 81 1015.8
20260510125815 16 70 0.0 0.0 0.00 0.00 0.00 83 1015.7
20260510125311 16 71 0.0 0.0 0.00 0.00 0.00 82 1015.8
20260510124809 16 71 0.0 0.0 0.00 0.00 0.00 84 1015.6
20260510124306 16 71 0.0 0.0 0.00 0.00 0.00 86 1015.7
20260510123801 15 71 0.0 0.0 0.00 0.00 0.00 85 1015.7
20260510123257 15 66 0.0 0.0 0.00 0.00 0.00 84 1015.7
20260510122753 15 66 0.0 0.0 0.00 0.00 0.00 86 1015.6
20260510122249 15 66 0.0 0.0 0.00 0.00 0.00 86 1015.6
20260510121746 14 66 0.0 0.0 0.00 0.00 0.00 86 1015.5
20260510121244 13 66 0.0 0.0 0.00 0.00 0.00 88 1015.3
20260510120741 13 66 0.0 0.0 0.00 0.00 0.00 89 1015.3
20260510120237 13 66 0.0 0.0 0.00 0.00 0.00 90 1015.3
20260510115733 13 66 0.0 0.0 0.00 0.00 0.00 90 1015.3
20260510115232 12 66 0.0 0.0 0.00 0.00 0.00 91 1015.5
20260510114721 12 66 0.0 0.0 0.00 0.00 0.00 92 1015.3
20260510114219 12 66 0.0 0.0 0.00 0.00 0.00 92 1015.2
20260510113714 12 66 0.0 0.0 0.00 0.00 0.00 93 1015.1
20260510113211 11 66 0.0 0.0 0.00 0.00 0.00 93 1015.0
20260510112707 11 66 0.0 0.0 0.00 0.00 0.00 93 1014.8
20260510112204 11 67 0.0 0.0 0.00 0.00 0.00 93 1014.7
20260510111659 11 67 0.0 0.0 0.00 0.00 0.00 93 1014.4
20260510111156 11 66 0.0 0.0 0.00 0.00 0.00 93 1014.6
20260510110645 11 67 0.0 0.0 0.00 0.00 0.00 93 1014.3
20260510110144 11 67 0.0 0.0 0.00 0.00 0.00 93 1014.6
20260510105639 11 67 0.0 0.0 0.00 0.00 0.00 93 1014.3
20260510105138 11 66 0.0 0.0 0.00 0.00 0.00 93 1014.6
20260510104635 11 67 0.0 0.0 0.00 0.00 0.00 93 1014.5
20260510104132 11 67 0.0 0.0 0.00 0.00 0.00 93 1014.4
20260510103629 11 66 0.0 0.0 0.00 0.00 0.00 93 1014.8
20260510103125 11 67 0.0 0.0 0.00 0.00 0.00 92 1014.4
20260510102620 11 66 0.0 0.0 0.00 0.00 0.00 92 1014.3
20260510102116 11 66 0.0 0.0 0.00 0.00 0.00 92 1014.4
20260510101615 11 66 0.0 0.0 0.00 0.00 0.00 92 1014.3
20260510101113 11 66 0.0 0.0 0.00 0.00 0.00 93 1014.0
20260510100608 11 66 0.0 0.0 0.00 0.00 0.00 92 1013.9
20260510100106 11 66 0.0 0.0 0.00 0.00 0.00 91 1014.0
20260510095602 11 66 0.0 0.0 0.00 0.00 0.00 90 1013.7
20260510095101 11 66 0.0 0.0 0.00 0.00 0.00 89 1013.7
20260510094601 11 66 0.0 0.0 0.00 0.00 0.00 88 1013.5
20260510094056 11 66 0.0 0.0 0.00 0.00 0.00 87 1013.4
20260510093553 12 66 0.0 0.0 0.00 0.00 0.00 87 1013.4
20260510093050 12 66 0.0 0.0 0.00 0.00 0.00 87 1013.2
20260510092547 12 66 0.0 0.0 0.00 0.00 0.00 87 1013.1
20260510092046 12 66 0.0 0.0 0.00 0.00 0.00 87 1013.2
20260510091543 12 66 0.0 0.0 0.00 0.00 0.00 87 1013.2
20260510091039 12 66 0.0 0.0 0.00 0.00 0.00 87 1013.2
20260510090536 12 66 0.0 0.0 0.00 0.00 0.00 87 1013.1
20260510090032 12 66 0.0 0.0 0.00 0.00 0.00 87 1013.4
20260510085527 12 66 0.0 0.0 0.00 0.00 0.00 86 1013.3
20260510085023 12 66 0.0 0.0 0.00 0.00 0.00 86 1013.4
20260510084520 13 66 0.0 0.0 0.00 0.00 0.00 85 1013.1
20260510084017 13 66 0.0 0.0 0.00 0.00 0.00 83 1012.9
20260510083514 13 66 0.0 0.0 0.00 0.00 0.00 83 1013.1
20260510083010 13 66 0.0 0.0 0.00 0.00 0.00 84 1013.0
20260510082507 13 66 0.0 0.0 0.00 0.00 0.00 84 1012.8
20260510082006 13 66 0.0 0.0 0.00 0.00 0.00 83 1012.8
20260510081502 13 66 0.0 0.0 0.00 0.00 0.00 83 1012.7
20260510080958 13 66 0.0 0.0 0.00 0.00 0.00 83 1012.5
20260510080456 13 66 0.0 0.0 0.00 0.00 0.00 84 1012.6
20260510075954 13 66 0.0 0.0 0.00 0.00 0.00 85 1012.4
20260510075451 13 66 0.0 0.0 0.00 0.00 0.00 85 1012.6
20260510074948 13 66 0.0 0.0 0.00 0.00 0.00 84 1012.5
20260510074445 13 66 0.0 0.0 0.00 0.00 0.00 82 1012.6
20260510073941 13 66 0.0 0.0 0.00 0.00 0.00 82 1012.6
20260510073437 13 66 0.0 0.0 0.00 0.00 0.00 82 1012.8
20260510072934 13 66 0.0 0.0 0.00 0.00 0.00 83 1012.8
20260510072431 13 66 0.0 0.0 0.00 0.00 0.00 82 1012.8
20260510071932 13 66 0.0 0.0 0.00 0.00 0.00 81 1013.0
20260510071429 13 66 0.0 0.0 0.00 0.00 0.00 80 1012.8
20260510070927 13 66 0.0 0.0 0.00 0.00 0.00 79 1012.9
20260510070424 13 66 0.0 0.0 0.00 0.00 0.00 81 1012.7
20260510065919 13 66 0.0 0.0 0.00 0.00 0.00 82 1012.6
20260510065416 13 66 0.0 0.0 0.00 0.00 0.00 80 1013.0
20260510064912 13 66 0.0 0.0 0.00 0.00 0.00 79 1012.6
20260510064410 13 66 0.0 0.0 0.00 0.00 0.00 79 1012.6
20260510063906 13 66 0.0 0.0 0.00 0.00 0.00 78 1012.7
20260510063402 13 66 0.0 0.0 0.00 0.00 0.00 78 1012.7
20260510062900 13 66 0.0 0.0 0.00 0.00 0.00 78 1012.5
20260510062355 14 66 0.0 0.0 0.00 0.00 0.00 77 1012.7
20260510061850 14 66 0.0 0.0 0.00 0.00 0.00 75 1012.7
20260510061348 15 66 0.0 0.0 0.00 0.00 0.00 75 1012.4
20260510060844 15 66 0.0 0.0 0.00 0.00 0.00 74 1012.5
20260510060341 15 66 0.0 0.0 0.00 0.00 0.00 73 1012.6
20260510055838 15 66 0.0 0.0 0.00 0.00 0.00 73 1012.6
20260510055336 15 66 0.0 0.0 0.00 0.00 0.00 73 1012.5
20260510054831 15 66 0.0 0.0 0.00 0.00 0.00 71 1012.5
20260510054327 15 66 0.0 0.0 0.00 0.00 0.00 70 1012.4
20260510053822 15 66 0.0 0.0 0.00 0.00 0.00 70 1012.3
20260510053317 15 66 0.0 0.0 0.00 0.00 0.00 70 1012.4
20260510052814 15 66 0.0 0.0 0.00 0.00 0.00 70 1012.3
20260510052310 15 66 0.0 0.0 0.00 0.00 0.00 69 1012.2
20260510051805 15 66 0.0 0.0 0.00 0.00 0.00 70 1012.4
20260510051302 15 66 0.0 0.0 0.00 0.00 0.00 70 1012.2
20260510050759 15 66 0.0 0.0 0.00 0.00 0.00 70 1012.2
20260510050256 15 66 0.0 0.0 0.00 0.00 0.00 71 1012.2
20260510045753 16 66 0.0 0.0 0.00 0.00 0.00 70 1012.3
20260510045249 16 66 0.0 0.0 0.00 0.00 0.00 70 1012.1
20260510044747 16 66 0.0 0.0 0.00 0.00 0.00 70 1012.2
20260510044244 16 66 0.0 0.0 0.00 0.00 0.00 70 1012.3
20260510043740 16 66 0.0 0.0 0.00 0.00 0.00 70 1012.1
20260510043237 16 66 0.0 0.0 0.00 0.00 0.00 69 1012.1
20260510042734 16 66 0.0 0.0 0.00 0.00 0.00 70 1012.3
20260510042229 16 66 0.0 0.0 0.00 0.00 0.00 69 1012.1
20260510041726 16 66 0.0 0.0 0.00 0.00 0.00 68 1012.3
20260510041224 16 66 0.0 0.0 0.00 0.00 0.00 68 1012.1
20260510040720 16 66 0.0 0.0 0.00 0.00 0.00 68 1012.2
20260510040217 16 66 0.0 0.0 0.00 0.00 0.00 68 1012.2
20260510035713 16 65 0.0 0.0 0.00 0.00 0.00 68 1012.2
20260510035209 16 65 0.0 0.0 0.00 0.00 0.00 68 1012.2
20260510034705 17 65 0.0 0.0 0.00 0.00 0.00 68 1012.1
20260510034202 16 65 0.0 0.0 0.00 0.00 0.00 67 1012.3
20260510033659 16 64 0.0 0.0 0.00 0.00 0.00 68 1012.2
20260510033157 16 64 0.0 0.0 0.00 0.00 0.00 68 1012.1
20260510032653 16 64 0.0 0.0 0.00 0.00 0.00 68 1012.3
20260510032148 17 64 0.0 0.0 0.00 0.00 0.00 68 1012.3
20260510031643 17 64 0.0 0.0 0.00 0.00 0.00 67 1012.1
20260510031140 16 64 0.0 0.0 0.00 0.00 0.00 68 1012.4
20260510030634 16 64 0.0 0.0 0.00 0.00 0.00 68 1012.2
20260510030132 17 62 0.0 0.0 0.00 0.00 0.00 71 1012.4
20260510025629 17 62 0.0 0.0 0.00 0.00 0.00 69 1012.2
20260510025126 17 61 0.0 0.0 0.00 0.00 0.00 67 1012.1
20260510024623 17 61 0.0 0.0 0.00 0.00 0.00 69 1012.2
20260510024120 17 61 0.0 0.0 0.00 0.00 0.00 69 1012.1
20260510023615 17 61 0.0 0.0 0.00 0.00 0.00 68 1012.1
20260510023114 17 61 0.0 0.0 0.00 0.00 0.00 67 1012.0
20260510022613 17 61 0.0 0.0 0.00 0.00 0.00 68 1011.8
20260510022108 17 61 0.0 0.0 0.00 0.00 0.00 68 1011.7
20260510021604 17 61 0.0 0.0 0.00 0.00 0.00 66 1011.6
20260510021102 17 61 0.0 0.0 0.00 0.00 0.00 67 1011.6
20260510020601 17 61 0.0 0.0 0.00 0.00 0.00 66 1011.7
20260510020057 17 61 0.0 0.0 0.00 0.00 0.00 65 1011.7
20260510015554 17 61 0.0 0.0 0.00 0.00 0.00 65 1011.5
20260510015050 17 61 0.0 0.0 0.00 0.00 0.00 64 1011.4
20260510014546 18 61 0.0 0.0 0.00 0.00 0.00 63 1011.3
20260510014043 18 61 0.0 0.0 0.00 0.00 0.00 62 1011.2
20260510013538 18 61 0.0 0.0 0.00 0.00 0.00 60 1011.2
20260510013034 18 61 0.0 0.0 0.00 0.00 0.00 59 1011.2
20260510012528 18 61 0.0 0.0 0.00 0.00 0.00 60 1011.2
20260510012025 19 61 0.0 0.0 0.00 0.00 0.00 60 1011.2
20260510011524 19 61 0.0 0.0 0.00 0.00 0.00 60 1011.0
20260510011020 20 61 0.0 0.0 0.00 0.00 0.00 60 1010.9
20260510010517 20 61 0.0 0.0 0.00 0.00 0.00 57 1010.8
20260510010014 20 61 0.0 0.0 0.00 0.00 0.00 57 1010.9
20260510005509 20 61 0.0 0.0 0.00 0.00 0.00 57 1010.6
20260510005008 20 61 0.0 0.0 0.00 0.00 0.00 56 1010.7
20260510004505 21 61 0.0 0.0 0.00 0.00 0.00 55 1010.6
20260510004003 21 61 0.0 0.0 0.00 0.00 0.00 55 1010.5
20260510003459 21 61 0.0 0.0 0.00 0.00 0.00 54 1010.7
20260510002954 22 61 0.0 0.0 0.00 0.00 0.00 52 1010.7
20260510002450 22 61 0.0 0.0 0.00 0.00 0.00 51 1010.6
20260510001947 22 49 0.0 0.0 0.00 0.00 0.00 51 1010.5
20260510001444 22 51 0.0 0.0 0.00 0.00 0.00 50 1010.5
20260510000942 23 51 0.0 0.0 0.00 0.00 0.00 48 1010.5
20260510000440 23 50 0.0 0.0 0.00 0.00 0.00 48 1010.3
20260509235935 23 50 0.0 0.0 0.00 0.00 0.00 43 1010.5
20260509235431 24 50 0.0 0.0 0.00 0.00 0.00 43 1010.3
20260509234928 24 50 0.0 0.0 0.00 0.00 0.00 40 1010.3
20260509234425 25 50 0.0 0.0 0.00 0.00 0.00 37 1010.1
20260509233923 25 47 0.0 0.0 0.00 0.00 0.00 39 1010.2
20260509233420 25 41 0.0 1.6 0.00 0.00 0.00 39 1009.9
20260509232916 25 38 0.0 0.0 0.00 0.00 0.00 38 1010.1
20260509232414 25 57 0.0 0.0 0.00 0.00 0.00 38 1010.0
20260509231909 26 60 0.0 0.0 0.00 0.00 0.00 35 1010.1
20260509231406 26 43 0.0 0.0 0.00 0.00 0.00 33 1010.2
20260509230904 26 43 0.0 0.0 0.00 0.00 0.00 33 1010.2
20260509230401 26 58 0.0 0.0 0.00 0.00 0.00 30 1010.1
20260509225857 26 34 0.0 1.6 0.00 0.00 0.00 31 1010.0
20260509225353 26 77 1.6 1.6 0.00 0.00 0.00 32 1010.0
20260509224849 26 27 1.6 1.6 0.00 0.00 0.00 32 1010.2
20260509224345 26 57 0.0 0.0 0.00 0.00 0.00 35 1010.1
20260509223843 26 67 0.0 0.0 0.00 0.00 0.00 33 1010.2
20260509223339 26 42 0.0 0.0 0.00 0.00 0.00 32 1010.2
20260509222836 26 48 0.0 0.0 0.00 0.00 0.00 35 1010.1
20260509222331 27 44 0.0 0.0 0.00 0.00 0.00 34 1010.0
20260509221827 27 169 1.6 1.6 0.00 0.00 0.00 35 1010.3
20260509221325 27 77 1.6 1.6 0.00 0.00 0.00 31 1010.1
20260509220825 27 42 0.0 1.6 0.00 0.00 0.00 33 1010.0
20260509220321 27 29 0.0 1.6 0.00 0.00 0.00 31 1010.1
20260509215817 27 51 0.0 0.0 0.00 0.00 0.00 35 1010.2
20260509215314 28 240 1.6 3.2 0.00 0.00 0.00 31 1010.1
20260509214811 28 57 1.6 1.6 0.00 0.00 0.00 31 1010.1
20260509214308 28 80 1.6 1.6 0.00 0.00 0.00 32 1010.0
20260509213805 28 67 1.6 1.6 0.00 0.00 0.00 32 1010.0
20260509213300 28 107 0.0 1.6 0.00 0.00 0.00 28 1009.9
20260509212758 28 40 0.0 0.0 0.00 0.00 0.00 28 1010.0
20260509212255 28 49 0.0 0.0 0.00 0.00 0.00 33 1009.8
20260509211750 28 54 0.0 0.0 0.00 0.00 0.00 33 1010.1
20260509211247 28 354 1.6 1.6 0.00 0.00 0.00 30 1009.9
20260509210744 28 73 1.6 1.6 0.00 0.00 0.00 32 1009.9
20260509210242 28 30 0.0 0.0 0.00 0.00 0.00 31 1009.9
20260509205741 28 266 3.2 3.2 0.00 0.00 0.00 34 1009.9